Location: Oshawa
(43.9000°N, 78.8670°W)
Time: 15:53:30
(UTC-04:00)

Altair - Visible Passes

Search period start: 19 October 2017 00:00
Search period end: 29 October 2017 00:00
Orbit: 1501 x 1683 km, 47.2° (Epoch: 18 October)

Date Brightness Start Highest point End Pass type
(mag) Time Alt. Az. Time Alt. Az. Time Alt. Az.
19 Oct 7.5 20:15:14 10° WSW 20:24:59 87° SSE 20:30:39 31° ENE visible
19 Oct 7.8 22:20:25 10° W 22:28:40 63° NW 22:28:40 63° NW visible
20 Oct 9.5 00:25:36 10° WNW 00:26:41 14° WNW 00:26:41 14° WNW visible
20 Oct 7.5 19:50:06 10° WSW 19:59:47 84° SSE 20:06:46 23° ENE visible
20 Oct 7.6 21:55:12 10° W 22:04:48 73° NNW 22:04:48 73° NNW visible
21 Oct 9.3 00:00:24 10° WNW 00:02:48 20° WNW 00:02:48 20° WNW visible
21 Oct 7.6 19:24:58 10° WSW 19:34:36 80° SSE 19:42:52 17° ENE visible
21 Oct 7.5 21:29:58 10° W 21:39:50 74° N 21:40:53 69° NE visible
21 Oct 9.0 23:35:12 10° WNW 23:38:53 27° WNW 23:38:53 27° WNW visible
22 Oct 7.6 18:59:51 10° SW 19:09:26 77° SSE 19:18:57 12° ENE visible
22 Oct 7.6 21:04:46 10° W 21:14:35 74° N 21:16:57 57° ENE visible
22 Oct 8.7 23:10:01 10° WNW 23:14:58 35° WNW 23:14:58 35° WNW visible
23 Oct 7.7 18:34:46 10° SW 18:44:15 73° SSE 18:54:11 10° ENE visible
23 Oct 7.6 20:39:33 10° W 20:49:20 75° N 20:53:02 45° ENE visible
23 Oct 8.3 22:44:49 10° WNW 22:51:02 45° WNW 22:51:02 45° WNW visible
24 Oct 7.6 20:14:21 10° W 20:24:05 76° N 20:29:06 35° ENE visible
24 Oct 7.9 22:19:37 10° WNW 22:27:06 58° WNW 22:27:06 58° WNW visible
25 Oct 9.7 00:24:37 10° WNW 00:25:07 12° WNW 00:25:07 12° WNW visible
25 Oct 7.6 19:49:09 10° W 19:58:51 77° N 20:05:10 27° ENE visible
25 Oct 7.6 21:54:26 10° WNW 22:03:10 72° NW 22:03:10 72° NW visible
25 Oct 9.4 23:59:24 10° WNW 00:01:11 17° WNW 00:01:11 17° WNW visible
26 Oct 7.6 19:23:57 10° W 19:33:37 78° NNW 19:41:14 20° ENE visible
26 Oct 7.4 21:29:14 10° WNW 21:39:07 80° NNE 21:39:15 80° NNE visible
26 Oct 9.2 23:34:12 10° WNW 23:37:16 23° WNW 23:37:16 23° WNW visible
27 Oct 7.7 18:58:46 10° W 19:08:24 79° NNW 19:17:20 14° ENE visible
27 Oct 7.4 21:04:02 10° WNW 21:13:53 78° NNE 21:15:20 68° ENE visible
27 Oct 8.8 23:09:00 10° WNW 23:13:21 30° WNW 23:13:21 30° WNW visible
28 Oct 7.7 18:33:35 10° WSW 18:43:11 81° NNW 18:53:12 10° ENE visible
28 Oct 7.5 20:38:51 10° WNW 20:48:39 77° N 20:51:26 53° E visible
28 Oct 8.5 22:43:48 10° WNW 22:49:27 39° W 22:49:27 39° W visible
